Regional Weather Roundup
Issued by NWS

Home | Current Version | Previous Version | Text Only | Print | Product List | Glossary On
Versions: 1 2 3 4 5 6 7 8 9 10 11 12 13 14 15 16 17 18 19 20 21 22 23 24 25 26 27 28 29 30 31 32 33 34 35 36 37 38 39 40 41 42 43 44 45 46 47 48 49 50
000
ASUS43 KLMK 212110
RWRKY
KENTUCKY REGIONAL WEATHER ROUNDUP
NATIONAL WEATHER SERVICE LOUISVILLE KY
400 PM EST SUN DEC 21 2014

NOTE "FAIR" INDICATES FEW OR NO CLOUDS BELOW 12,000 FEET
WITH NO SIGNIFICANT WEATHER AND/OR OBSTRUCTIONS TO VISIBILITY.

KYZ001>023-026-027-061>063-070>075-212200-
WESTERN AND SOUTH CENTRAL KENTUCKY

CITY           SKY/WX    TMP DP  RH WIND       PRES   REMARKS
PADUCAH        SUNNY     49  33  54 E8        30.06F
HENDERSON      MOSUNNY   45  27  49 E6        30.10F
OWENSBORO      MOSUNNY   46  30  54 VRB3      30.12F
HOPKINSVILLE   MOSUNNY   50  30  46 E7        30.07
BOWLING GREEN  SUNNY     49  30  48 NE9       30.10F
GLASGOW        SUNNY     49  29  44 NE3       30.11F
$$

KYZ024-025-028>034-038-045-046-053-212200-
NORTH CENTRAL KENTUCKY

CITY           SKY/WX    TMP DP  RH WIND       PRES   REMARKS
LOUISVILLE/SDF PTSUNNY   44  29  55 NE8       30.15F
LOUISVILLE/LOU MOSUNNY   42  29  59 SE3       30.16F
FORT KNOX      MOSUNNY   42  29  59 NE7       30.12S
$$

KYZ035>037-039>044-047>052-055>060-089>105-212200-
NORTHEAST KENTUCKY

CITY           SKY/WX    TMP DP  RH WIND       PRES   REMARKS
LEXINGTON      MOSUNNY   42  28  57 CALM      30.15F
COVINGTON      PTSUNNY   37  25  61 E7        30.17F WCI  32
FRANKFORT      PTSUNNY   40  28  62 NE6       30.15F
$$

KYZ054-064>069-076>088-106>120-212200-
SOUTHEAST KENTUCKY

CITY           SKY/WX    TMP DP  RH WIND       PRES   REMARKS
JACKSON        SUNNY     44  26  49 VRB3      30.13F
LONDON         SUNNY     49  28  44 CALM      30.11F
SOMERSET       MOSUNNY   46  27  46 E5        30.13S
MIDDLESBORO    SUNNY     50  34  54 S8        30.12F
MONTICELLO     CLEAR     49  30  48 N8        30.14S
$$



USA.gov is the U.S. government's official web portal to all federal, state and local government web resources and services.